NOAA NWS Hourly Roundups by Site

Regional Weather Roundup for Topeka, KS

To Select Another Site Choose from List

Select Site:  

000
ASUS43 KTOP 190408
RWRKS

WEATHER ROUNDUP FOR KANSAS
NATIONAL WEATHER SERVICE GOODLAND KS
1100 PM CDT SUN AUG 18 2019

NOTE:  "FAIR" INDICATES FEW OR NO CLOUDS BELOW 12,000 FEET WITH NO
SIGNIFICANT WEATHER AND/OR OBSTRUCTIONS TO VISIBILITY.

KSZ001>006-013>018-027>032-041>047-190500-
NORTHWEST KANSAS

CITY           SKY/WX    TMP DP  RH WIND       PRES   REMARKS
GOODLAND       CLEAR     70  67  90 SE8       29.98R
HAYS           CLEAR     74  70  87 E9        29.84R
HILL CITY      CLEAR     73  68  84 E5        29.95R
RUSSELL        CLEAR     75  69  81 E10       29.92R
$$

KSZ061>065-074>080-084>089-190500-
SOUTHWEST KANSAS

CITY           SKY/WX    TMP DP  RH WIND       PRES   REMARKS
DODGE CITY     CLEAR     76  68  76 SE12      29.95R
ELKHART        CLEAR     78  67  69 SE12      29.99R
GARDEN CITY    CLEAR     75  66  73 SE12      29.95R
GREAT BEND     CLEAR     76  71  85 SE8       29.93R
LIBERAL        CLEAR     79  66  64 E13       29.96R
PRATT          CLEAR     79  71  76 SE8       29.94R
$$

KSZ066>073-081>083-090>101-190500-
SOUTHEAST KANSAS

CITY           SKY/WX    TMP DP  RH WIND       PRES   REMARKS
CHANUTE        CLEAR     78  74  87 SE6       29.93R
COFFEYVILLE    PTCLDY    78  75  90 SE7       29.91R
HUTCHINSON     CLEAR     77  71  82 E7        29.92R
MEDICINE LODGE   N/A     80  72  76 E7        29.91R
NEWTON         CLEAR     77  71  82 E9        29.94R
PARSONS        CLEAR     79  76  90 SE5       29.93R
WICHITA INTL   CLEAR     82  73  74 E10       29.91R
WICHITA JABRA  CLEAR     78  74  87 SE6       29.92R
WICHITA MCCONL CLEAR     80  72  76 E9        29.92R
WINFIELD       PTCLDY    81  75  82 E6        29.92R
$$

KSZ007>012-019>026-033>040-048>060-102>105-190500-
NORTHEAST KANSAS

CITY           SKY/WX    TMP DP  RH WIND       PRES   REMARKS
CONCORDIA      CLEAR     74  70  87 E5        29.93R
EMPORIA        CLEAR     74  73  97 S6        29.93R
LAWRENCE       MOCLDY    75  72  90 CALM      29.92R
MANHATTAN      CLEAR     74  72  93 CALM      29.92R
MARYSVILLE     CLEAR     70  68  94 E3        29.95R
OLATHE IND     CLEAR     77  71  82 SE6       29.94R
OLATHE EXE     CLEAR     76  73  91 CALM      29.94R
SALINA         CLEAR     79  70  74 SE5       29.91S
TOPEKA BILLARD CLOUDY    78  73  84 CALM      29.91R
TOPEKA FORBES  CLOUDY    78  73  84 CALM      29.92R
$$


 

View Past Reports for Topeka, KS.

Products Courtesy of NOAA-NWS
NWS Information Parsing Script by Ken True at Saratoga Weather - Script by SE Lincoln Weather.